Location: *
(50.2903°S, 172.5375°W)
Time: 03:27:36
(UTC+00:00)

Cosmos 292 Rocket - Visible Passes

Search period start: 28 February 2020 00:00
Search period end: 09 March 2020 00:00
Orbit: 674 x 693 km, 74.0° (Epoch: 27 February)

Date Brightness Start Highest point End Pass type
(mag) Time Alt. Az. Time Alt. Az. Time Alt. Az.
28 Feb 5.9 15:12:55 10° NNE 15:16:47 24° E 15:20:42 10° SE visible
29 Feb 4.3 15:49:44 10° N 15:54:31 62° ENE 15:59:23 10° SSE visible
01 Mar 5.9 14:48:52 10° NNE 14:52:43 24° E 14:56:36 10° SE visible
02 Mar 4.3 15:25:48 11° N 15:30:26 61° ENE 15:35:18 10° SSE visible
03 Mar 5.8 14:25:19 12° NNE 14:28:38 23° E 14:32:29 10° SE visible
03 Mar 4.0 16:03:51 11° NW 16:08:32 54° WSW 16:13:23 10° SSE visible
04 Mar 4.2 15:03:19 22° N 15:06:21 60° ENE 15:11:12 10° SSE visible
05 Mar 5.7 14:02:42 18° NE 14:04:33 23° E 14:08:22 10° SE visible
05 Mar 4.0 15:41:15 21° NW 15:44:26 55° WSW 15:49:18 10° SSE visible
06 Mar 4.2 14:40:35 38° NNE 14:42:15 58° ENE 14:47:06 10° SSE visible
06 Mar 5.1 16:19:07 11° WNW 16:22:54 25° SW 16:26:58 10° S visible
07 Mar 5.6 13:39:54 22° ENE 13:40:28 22° E 13:44:15 10° SE visible
07 Mar 4.0 15:18:25 34° WNW 15:20:20 56° WSW 15:25:13 10° SSE visible
08 Mar 4.1 14:17:41 54° NE 14:18:10 57° ENE 14:23:01 10° SSE visible
08 Mar 5.1 15:56:11 17° W 15:58:48 25° SW 16:02:54 10° S visible
